Probability
0 0 0 0 0 0 0 0 0 0 0 0 0 0 0 0 0 0 0 0 0 0 0 0 0 0 0 0 0 0 0 0 0 0 0 0 0 0
0 0 0 0 0 0 0 0 0 0 0 0 0 0 0 0 0 0 0 0 0 0 0 0 0 0 0 0 0 0 0 0 0 0 0 0 0 0
0 0 0 0 0 0 0 0 0 0 0 0 0 0 0 0 0 0 0 0 0 0 0 0 0 0 0 0 0 0 0 0 0 0 0 0 0 0
0 0 0 0 0 0 0 0 0 0 0 0 0 0 0 0 0 0 0 0 0 0 0 0 0 0 0 0 0 0 0 0 0 0 0 0 0 0
0 0 0 0 0 0 0 0 0 0 0 0 0 0 0 0 0 0 0 0 0 0 0 0 0 0 0 0 0 0 0 0 0 0 0 0 0 0
0 0 0 0 0 0 0 0 0 0 0 0 0 0 0 0 0 0 0 0 0 0 0 0 0 0 0 0 0 0 0 0 0 0 0 0 0 0
0 0 0 0 0 0 0 0 0 0 0 0 0 0 0 0 0 0 0 0 0 0 0 0 0 0 0 0 0 0 0 0 0 0 0 0 0 0
0 0 0 0 0 0 0 0 0 0 0 0 0 0 0 0 0 0 0 0 0 0 0 0 0 0 0 0 0 0 0 0 0 0 0 0 0 0
0 0 0 0 0 0 0 0 0 0 0 0 0 0 0 0 0 0 0 0 0 0 0 0 0 0 0 0 0 0 0 0 0 0 0 0 0 0
0 0 0 0 0 0 0 0 0 0 0 0 0 0 0 0 0 0 0 0 0 0 0 0 0 0 0 0 0 0 0 0 0 0 0 0 0 0
0 0 0 0 0 0 0 0 0 0 0 0 0 0 0 0 0 0 0 0 0 0 0 0 0 0 0 0 0 0 0 0 0 0 0 0 0 0
0 0 0 0 0 0 0 0 0 0 0 0 0 0 0 0 0 0 0 0 0 0 0 0 0 0 0 0 0 0 0 0 0 0 0 0 0 0
0 0 0 0 0 0 0 0 0 0 0 0 0 0 0 0 0 0 0 0 0 0 0 0 0 0 0 0 0 0 0 0 0 0 0 0 0 0
0 0 0 0 0 0 0 0 0 0 0 0 0 0 0 0 0 0 0 0 0 0 0 0 0 0 0 0 0 0 0 0 0 0 0 0 0 0
0 0 0 0 0 0 0 0 0 0 0 0 0 0 0 0 0 0 0 0 0 0 0 0 0 0 0 0 0 0 0 0 0 0 0 0 0 0
0 0 0 0 0 0 0 0 0 0 0 0 0 0 0 0 0 0 0 0 0 0 0 0 0 0 0 0 0 0 0 0 0 0 0 0 0 0
0 0 0 0 0 0 0 0 0 0 0 0 0 0 0 0 0 0 0 0 0 0 0 0 0 0 0 0 0 0 0 0 0 0 0 0 0 0
0 0 0 0 0 0 0 0 0 0 0 0 0 0 0 0 0 0 0 0 0 0 0 0 0 0 0 0 0 0 0 0 0 0 0 0 0 0
0 0 0 0 0 0 0 0 0 0 0 0 0 0 0 0 0 0 0 0 0 0 0 0 0 0 0 0 0 0 0 0 0 0 0 0 0 0
0 0 0 0 0 0 0 0 0 0 0 0 0 0 0 0 0 0 0 0 0 0 0 0 0 0 0 0 0 0 0 0 0 0 0 0 0 0
0 0 0 0 0 0 0 0 0 0 0 0 0 0 0 0 0 0 0 0 0 0 0 0 0 0 0 0 0 0 0 0 0 0 0 0 0 0
0 0 0 0 0 0 0 0 0 0 0 0 0 0 0 0 0 0 0 0 0 0 0 0 0 0 0 0 0 0 0 0 0 0 0 0 0 0
0 0 0 0 0 0 0 0 0 0 0 0 0 0 0 0 0 0 0 0 0 0 0 0 0 0 0 0 0 0 0 0 0 0 0 0 0 0
Wind_Speed
3 3 2 2 1 1 2 3 4 3 3 3 2 2 2 2 3 2 2 4 4 3 3 4 4 4 5 6 7 7 8 9 9 9 10 10 11 12
2 3 2 2 2 2 2 1 2 3 3 2 2 1 2 2 3 3 3 4 4 4 4 4 4 5 5 6 7 7 8 9 10 10 11 11 12 12
2 3 3 2 2 2 2 2 2 2 3 1 1 0 2 2 1 2 2 2 2 4 4 4 5 5 5 6 7 7 8 9 10 10 11 12 12 12
4 3 3 3 3 2 2 2 2 2 3 2 1 1 2 2 2 2 1 1 2 4 5 5 5 5 5 6 7 7 8 8 9 10 11 12 12 12
4 4 4 4 3 2 3 3 2 2 2 2 2 1 1 1 1 1 1 1 2 3 4 5 5 5 6 6 7 7 8 9 9 10 11 11 12 13
3 4 4 5 5 4 3 3 3 3 2 2 1 1 1 1 1 1 1 1 1 1 3 3 4 5 6 7 7 7 8 9 9 10 10 11 11 12
3 3 4 5 6 5 4 4 4 3 3 2 2 1 2 2 2 2 2 1 1 1 1 1 2 2 3 5 6 7 8 9 9 10 10 11 11 12
4 3 3 4 6 7 7 7 7 5 5 4 3 3 3 3 2 2 2 1 2 1 1 2 1 3 3 2 6 8 8 9 9 9 10 11 12 12
4 3 3 4 5 4 5 6 7 8 8 5 5 5 4 5 4 3 3 3 3 2 1 2 1 3 3 4 8 8 8 8 9 9 11 12 12 13
4 4 4 4 4 4 3 3 4 5 6 4 5 5 4 4 5 4 4 2 1 1 2 2 2 2 3 3 7 7 7 8 9 10 11 12 12 13
3 3 4 4 7 7 4 4 3 3 3 5 5 5 5 5 5 3 3 2 2 2 2 2 1 2 3 3 4 6 6 8 10 11 11 12 12 12
2 3 6 6 7 7 5 4 4 4 2 2 2 2 2 3 5 4 4 3 2 2 2 2 1 1 3 2 2 2 3 7 10 11 11 12 12 6
2 2 3 6 7 6 6 4 6 4 3 3 2 1 1 2 2 2 3 3 3 3 2 2 1 1 2 3 3 2 2 3 3 5 8 11 12 9
2 2 2 5 5 5 4 5 5 3 2 2 2 2 2 2 2 2 2 2 2 3 3 3 2 2 2 3 4 3 2 3 3 4 4 8 10 11
1 2 3 4 3 2 3 4 3 2 3 2 3 3 2 2 2 1 1 1 0 1 2 3 3 2 2 3 4 3 4 3 3 3 3 4 4 4
1 1 1 1 1 1 1 1 1 2 3 3 2 2 2 2 2 2 1 1 0 1 1 2 3 3 3 4 4 5 4 4 3 3 4 4 4 4
0 1 0 1 1 0 1 1 1 1 2 2 2 2 2 2 2 2 1 1 1 2 1 1 1 2 4 4 4 5 4 4 4 4 4 5 5 4
0 0 1 1 1 1 1 1 1 2 2 2 2 2 2 2 2 1 2 2 2 2 2 1 1 1 2 3 7 5 4 4 4 4 3 4 6 4
0 1 1 2 2 2 2 2 2 2 2 2 2 2 2 2 2 2 2 2 2 2 2 2 1 1 2 4 4 5 3 3 3 3 3 3 5 6
1 1 1 2 2 2 2 2 2 2 2 2 2 2 3 3 3 3 3 3 3 2 2 2 2 3 3 3 3 3 4 4 3 4 4 4 5 7
1 1 2 2 2 2 2 2 2 2 2 2 2 3 3 3 3 3 3 5 3 3 3 3 4 4 2 1 3 3 3 5 5 4 3 4 4 4
2 2 2 2 2 2 2 2 2 2 3 3 3 3 3 3 4 4 4 3 3 3 3 3 2 1 1 2 4 4 4 4 5 7 7 6 3 3
2 2 2 2 2 2 2 2 3 3 3 3 3 3 3 3 3 3 4 3 3 3 2 2 1 1 2 2 3 3 5 5 3 3 4 6 8 9
Wind_Direction
179 174 170 180 183 188 175 163 160 190 231 233 230 211 198 190 203 193 211 236 242 252 272 293 312 314 309 306 305 307 305 302 300 297 296 295 296 298
165 164 172 174 173 177 171 176 180 176 208 217 221 223 195 194 203 190 212 238 248 254 263 278 292 295 298 299 301 304 305 302 296 292 293 294 296 296
166 172 188 182 181 182 166 173 186 173 196 236 226 237 192 196 206 198 206 209 236 255 262 273 281 286 291 295 298 300 301 301 299 296 294 294 295 296
181 181 194 185 190 184 180 189 195 188 179 209 230 219 216 201 197 207 219 215 225 258 263 269 274 280 285 289 292 296 297 298 299 300 298 296 295 295
189 189 194 185 198 199 191 192 195 182 172 183 215 209 219 196 183 206 214 237 252 255 262 265 266 275 283 285 288 293 295 294 294 295 297 298 300 299
196 194 196 196 202 200 199 198 191 178 175 182 203 208 209 205 171 200 243 237 261 265 265 271 276 285 289 288 291 293 291 291 293 293 295 296 298 298
204 205 207 209 211 207 205 200 191 187 182 187 201 206 211 195 209 194 212 247 259 226 253 276 276 274 282 287 289 287 289 291 294 295 297 299 299 298
208 213 215 214 219 222 221 214 202 193 192 190 203 209 219 209 194 179 178 186 275 212 186 276 242 264 269 261 278 287 290 294 298 300 300 299 300 299
211 211 221 219 219 215 225 228 220 217 207 194 201 212 210 202 184 188 197 207 232 211 165 272 258 266 268 272 284 287 290 296 301 302 301 301 301 300
210 210 215 219 217 212 207 208 213 219 218 209 207 214 212 198 191 194 193 191 235 231 180 252 272 269 283 278 278 281 291 301 305 304 303 304 304 304
220 214 212 215 226 222 203 205 217 238 241 223 220 224 222 214 189 148 154 169 242 239 192 215 261 288 286 275 275 286 299 309 309 307 306 308 309 309
224 220 220 220 226 221 203 198 213 226 203 207 213 219 210 205 199 184 176 182 202 243 197 190 233 300 302 281 279 290 297 301 306 306 308 309 311 311
225 222 217 225 230 227 215 205 220 214 185 182 177 173 169 185 193 183 179 177 188 223 196 173 205 224 252 292 294 271 269 285 299 299 305 308 310 311
232 229 212 220 228 232 226 216 218 204 156 160 174 191 198 206 202 185 185 194 205 214 197 182 199 209 239 280 288 296 288 272 276 286 292 304 308 309
236 221 221 225 227 231 221 219 210 175 162 180 203 215 207 190 157 136 126 135 181 230 205 203 197 205 220 250 274 286 301 289 269 278 289 293 290 299
304 242 247 239 203 195 221 219 185 182 183 199 203 197 162 156 166 164 169 162 193 291 250 218 205 200 233 250 257 271 270 276 288 286 290 288 281 274
299 34 80 124 141 156 156 166 171 179 199 190 188 184 183 180 183 172 168 171 203 241 269 264 241 235 234 238 255 257 264 270 270 283 293 295 287 277
272 203 216 206 210 209 205 199 193 199 200 193 191 192 196 195 192 183 184 195 217 231 244 253 273 324 313 270 230 245 259 265 275 280 278 289 294 290
278 225 231 229 230 220 216 211 212 207 194 190 192 194 193 194 191 197 204 211 225 234 238 231 219 212 276 291 282 221 235 275 287 290 276 265 278 290
327 258 253 245 239 232 222 220 218 203 195 201 198 198 195 192 196 205 209 211 218 228 241 235 221 215 228 254 275 279 253 257 270 283 287 282 276 285
302 284 271 260 253 240 231 220 211 209 208 205 206 203 197 197 207 210 210 219 222 222 235 242 240 245 234 237 276 280 274 265 264 266 277 290 297 302
295 284 279 268 256 243 233 224 218 214 211 211 209 206 201 203 211 210 207 209 217 225 240 251 247 233 196 230 265 280 291 298 292 284 273 257 261 280
300 293 288 283 271 253 235 226 220 221 216 212 211 208 201 206 211 209 209 210 215 221 227 246 249 229 232 239 259 277 288 297 302 306 294 285 278 275